Regional Weather Roundup
Issued by NWS

Home | Current Version | Previous Version | Text Only | Print | Product List | Glossary Off
Versions: 1 2 3 4 5 6 7 8 9 10 11 12 13 14 15 16 17 18 19 20 21 22 23 24 25 26 27 28 29 30 31 32 33 34 35 36 37 38 39 40 41 42 43 44 45 46 47 48 49 50

000
ASUS43 KMPX 232301
RWRMN
WEATHER ROUNDUP FOR MINNESOTA
NATIONAL WEATHER SERVICE TWIN CITIES/CHANHASSEN MN
600 PM CDT MON OCT 23 2017


NOTE: "FAIR" INDICATES FEW OR NO CLOUDS BELOW 12,000 FEET WITH NO
SIGNIFICANT WEATHER AND/OR OBSTRUCTIONS TO VISIBILITY. N/A MEANS
CURRENT SKY AND/OR WEATHER CONDITIONS ARE NOT AVAILABLE.

MNZ060>063-068>070-240000-
   Twin Cities Metro

CITY           SKY/WX    TMP DP  RH WIND       PRES   REMARKS
TWIN CITIES    CLOUDY    50  38  63 NW30G36   29.84R
ST PAUL        CLOUDY    49  39  68 NW23G37   29.84R
CRYSTAL        CLOUDY    48  32  53 NW23G31   29.84R
BLAINE         CLOUDY    50  36  57 NW18G28   29.83R
LAKEVILLE      CLOUDY    48  37  66 NW17G24   29.83R
EDEN PRAIRIE   CLOUDY    50  35  56 NW23G38   29.83R
SOUTH ST PAUL  CLOUDY    50  37  62 NW21G32   29.83R
LAKE ELMO      CLOUDY    48  41  76 NW13G25   29.83R
$$
MNZ001>005-007-008-013>017-022>024-027-028-240000-
   Northwest Minnesota

CITY           SKY/WX    TMP DP  RH WIND       PRES   REMARKS
BEMIDJI        CLEAR     42  27  55 NW21      29.92R
HALLOCK        PTCLDY    43  28  56 N22       30.05R
ROSEAU         CLOUDY    43  30  61 NW14      29.98R
WARROAD        CLOUDY    43  32  65 NW16      29.97R
CROOKSTON      CLEAR     45  28  53 N22G31    30.01R
FOSSTON        CLEAR     45  28  53 NW16G22   29.97R
DETROIT LAKES  CLEAR     46  32  57 N16G25    29.96R
MOORHEAD       CLOUDY    52  28  40 N15       29.99R
PARK RAPIDS    CLEAR     45  29  53 NW21G28   29.91R
MAHNOMEN       FAIR      45  31  57 N17G23    29.97R
$$
MNZ006-009>011-018-025>026-240000-
   North Central Minnesota

CITY           SKY/WX    TMP DP  RH WIND       PRES   REMARKS
BAUDETTE       CLOUDY    43  34  70 NW22G36   29.92R
FLAG ISLAND    MOCLDY    43  36  75 NW24      29.95R
INTL FALLS     CLOUDY    43  34  70 NW14      29.87R
WASKISH        MOCLDY    45  30  57 NW15      29.92R
BIG FORK       CLOUDY    43  37  81 NW7       29.86R
LONGVILLE      CLOUDY    46  27  46 NW12G23   29.87R
GRAND RAPIDS   CLOUDY    43  37  79 NW15      29.86R
CRANE LAKE     CLOUDY    43  39  87 N10G17    29.83R
ORR            CLOUDY    43  36  75 NW16G23   29.81R
COOK           CLOUDY    45  39  81 NW13      29.82R
WALKER         FAIR      43  26  50 NW15G26   29.89S
$$
MNZ012-019>021-037-240000-
   Northeast Minnesota

CITY           SKY/WX    TMP DP  RH WIND       PRES   REMARKS
DULUTH         CLOUDY    46  44  93 NW17G28   29.75R
ELY            CLOUDY    45  39  81 NW12G20   29.77R
HIBBING        LGT RAIN  41  38  89 NW21G30   29.81R
EVELETH        CLOUDY    45  42  89 NW16G29   29.80R
DULUTH HARBOR  CLOUDY    52  46  82 NW12      29.77R
TWO HARBORS    PTCLDY    54  45  71 NW10G20   29.70R
SILVER BAY     PTCLDY    54  43  66 NW12G18   29.69R
GRAND MARAIS     N/A     57  44  62 VRB7      29.68R
G MARAIS ARPRT PTCLDY    48  37  66 W8        29.70R
$$
MNZ029>031-032-039>041-046>048-054>057-064-240000-
   West Central Minnesota

CITY           SKY/WX    TMP DP  RH WIND       PRES   REMARKS
FERGUS FALLS   PTCLDY    50  32  50 NW18G25   29.96S
WHEATON        PTCLDY    54  30  40 NW17G25   30.00R
MORRIS         CLEAR     54  28  37 NW21G29   29.95R
ALEXANDRIA     CLEAR     50  31  48 NW18G26   29.93R
ELBOW LAKE     FAIR      50  32  49 W18G24    29.96R
WADENA         CLEAR     46  30  53 NW12G23   29.92R
GLENWOOD       CLEAR     50  34  53 NW13G21   29.92S
APPLETON       PTCLDY    55  27  33 NW20G29   29.96R
BENSON         CLEAR     54  28  37 N23G32    29.95S
ORTONVILLE     PTCLDY    54  30  40 NW16G26   29.98R
MADISON        PTCLDY    57  28  33 NW24G32   29.97S
WILLMAR        FAIR      54  32  43 NW22G36   29.92F
$$
MNZ033>034-036-042>043-049>051-058-059-240000-
   Central Minnesota

CITY           SKY/WX    TMP DP  RH WIND       PRES   REMARKS
ST CLOUD       CLOUDY    48  28  46 NW13G20   29.87R
SAUK CENTRE    FAIR      49  29  46 NW23G29   29.90S
PAYNESVILLE    CLOUDY    51  31  47 NW18G26   29.90S
AITKIN         CLOUDY    45  30  57 NW13G23   29.84R
PINE RIVER     CLEAR     45  28  53 NW14      29.91R
BRAINERD       CLOUDY    50  27  40 NW18G28   29.87R
STAPLES        CLEAR     46  25  42 NW23      29.89S
LONG PRAIRIE   FAIR      46  30  53 W22G36    29.89S
LITTLE FALLS   PTCLDY    46  19  34 NW10G17   29.88R
LITCHFIELD     CLOUDY    52  34  50 NW16      29.90R
BUFFALO        CLOUDY    48  29  47 NW12G17   29.88R
MAPLE LAKE     CLOUDY    49  30  47 NW10G16   29.88R
HUTCHINSON     CLOUDY    51  32  49 NW17G25   29.90R
$$
MNZ037-044-045-052-053-240000-
   East Central Minnesota

CITY           SKY/WX    TMP DP  RH WIND       PRES   REMARKS
PRINCETON      CLOUDY    48  36  61 NW14G20   29.86R
MORA           MOCLDY    45  34  65 NW17G29   29.85R
CAMBRIDGE      CLOUDY    50  36  57 NW14      29.84R
RUSH CITY      CLOUDY    48  39  69 NW15G23   29.82R
MOOSE LAKE     CLOUDY    45  39  81 NW14G24   29.80R
HINCKLEY       CLOUDY    46  39  76 NW15G31   29.81R
CLOQUET        DRIZZLE   45  41  87 W15       29.78R
MCGREGOR       CLOUDY    45  37  76 NW13G22   29.85R
$$
MNZ071>073-080-081-089-090-097-098-240000-
   Southwest Minnesota

CITY           SKY/WX    TMP DP  RH WIND       PRES   REMARKS
MONTEVIDEO     CLEAR     54  28  37 N15G23    29.95S
GRANITE FALLS  CLEAR     54  30  41 NW14      29.97R
CANBY          MOCLDY    54  31  41 W14       30.00R
MARSHALL       CLOUDY    53  27  36 NW20      29.97R
REDWOOD FALLS  CLOUDY    54  32  43 NW13      29.92F
OLIVIA         CLOUDY    52  36  54 NW14G20   29.91F
PIPESTONE      CLOUDY    52  25  35 NW18G29   30.00S
WORTHINGTON    CLOUDY    51  28  41 NW23G37   29.98S
JACKSON        CLOUDY    50  30  46 NW16G29   29.95S
TRACY          CLOUDY    52  29  41 NW13G21   29.97R
SLAYTON        CLOUDY    52  28  39 NW22G30   29.99R
$$
MNZ065>067-074>077-082>085-091>093-240000-
   South Central Minnesota

CITY           SKY/WX    TMP DP  RH WIND       PRES   REMARKS
NEW ULM          N/A     50  32  50 NW20G26   29.90R
ST JAMES       CLOUDY    50  34  53 NW17G26   29.92S
FAIRMONT       CLOUDY    49  35  58 NW21G28   29.92R
GLENCOE        CLOUDY    51  32  48 NW13G22   29.88R
FARIBAULT      CLOUDY    48  37  66 W15       29.84S
OWATONNA       CLOUDY    48  39  71 NW23      29.84S
WASECA         CLOUDY    50  32  50 NW18G25   29.87S
$$
MNZ078>079-086>088-094>096-240000-
   Southeast Minnesota

CITY           SKY/WX    TMP DP  RH WIND       PRES   REMARKS
ROCHESTER      CLOUDY    48  41  76 NW17G30   29.80R
RED WING       CLOUDY    52  37  58 NW12G22   29.79R
STANTON        CLOUDY    50  40  67 NW26G32   29.81R
DODGE CENTER   CLOUDY    46  39  76 NW20G26   29.82R
WINONA         PTCLDY    54  39  58 NW9G20    29.75R
AUSTIN         CLOUDY    46  39  76 NW16G26   29.83S
PRESTON        MOCLDY    48  37  67 NW13G26   29.80R
$$
ABBREVIATIONS USED IN REMARKS
   TC - TEMPERATURES IN CELSIUS
  WCI - WIND CHILL INDEX
   HX - HEAT INDEX
  VSB - VISIBILITY
$$




USA.gov is the U.S. government's official web portal to all federal, state and local government web resources and services.